Starlink 4395

operational
NORAD ID: 53199 Int'l Des: 2022-084 Owner: SPXS Country: US Constellation: starlink
LEOCIRCULARRETROGRADESSO

关于 Starlink 4395

正在加载描述...

实时位置

正在加载3D地球...

即将过境

高度历史

Altitude vs Time

uPlot chart will show altitude changes over time

两行轨道根数

1 53199U 22084L 25299.14806215 -.00000162 00000-0 -70134-5 0 9998
2 53199 97.6028 358.5904 0001584 87.5896 272.5512 15.05647485179136
Epoch: Oct 26, 2025 • Age: 10 hours

当前状态

高度 561.9 km
速度 7.59 km/s
星下点 80.85°N, 3.81°W
发射日期 Jul 22, 2022
运行时间 3.2 years
类型 internet

技术详情

分类 Payload
质量 297.00 kg
干质量 275.00 kg
总质量 297.00 kg
长度 0.20 m
直径 2.80 m
跨度 9.00 m
形状 Box + pan
制造商 SPXS
平台类型 Starlink
阶段状态 In Orbit
所有者/国家 SPXS/US

大型星座

Loading constellations...